Weather in Zavrazhye

Russia / Kostroma Oblast     57°24′35″N   43°09′12″E
temp.,
°C
wind,
m/s
gust,
m/s
humid.,
%
clouds,
%
prec.,
mm/h
press.,
hPa
HPBL,
m
13 april, tue
tue1300:00+5se31196100 0.0 1034405
03:00+5se3998100 0.0 1033389
06:00+6se3899100 0.0 1032341
09:00+7sse3898100 0.0 1031319
12:00+11s4883100 0.0 1030367
15:00+14s4974100 0.0 1028567
18:00+11sse278275 0.0 1027132
21:00+8sse310895 0.0 1027165
14 april, wed
wed1400:00+6s3128298 0.0 1027202
03:00+5s398635 0.0 1026147
06:00+5s388554 0.0 1026129
09:00+11s486984 0.0 1025261
12:00+14s485851 0.0 1024495
15:00+16s485456 0.0 1023695
18:00+13sse2565100 0.0 102190
21:00+9sse3576100 0.0 102278
15 april, thu
thu1500:00+7s2280100 0.0 102137
03:00+6s2281100 0.0 102018
06:00+6s228199 0.0 102018
09:00+12ssw116391 0.0 1020179
12:00+16ssw114996 0.0 1019528
15:00+17w1145100 0.0 1019814
18:00+14nne5964100 0.0 1019510
21:00
16 april, fri
fri1600:00+6ne51186100 0.0 1022449
03:00+4ne5118586 0.0 1022449
06:00+4ne4118771 0.0 1023468
09:00+8ne576946 0.0 1024765
12:00+9ne565848 0.0 1024854
15:00+12ne56396 0.0 10241448
18:00+10ne484132 0.0 1025644
21:00+5nne3106169 0.0 1027218
17 april, sat
sat1700:00+3ne397164 0.0 1027214
03:00+1nne377850 0.0 1028142
06:00+1nne387812 0.0 1029199
09:00+7nne47485 0.0 1029750
12:00+10nne46425 0.0 10291583
15:00+11nne563926 0.0 10291848
18:00+9nne47465 0.0 1029974
21:00+5nne411635 0.0 1030400